Regional Weather Roundup
Issued by NWS Sioux Falls, SD

Home | Current Version | Previous Version | Text Only | Print | Product List | Glossary On
Versions: 1 2 3 4 5 6 7 8 9 10 11 12 13 14 15 16 17 18 19 20 21 22 23 24 25 26 27 28 29 30 31 32 33 34 35 36 37 38 39 40 41 42 43 44 45 46 47 48 49 50
000
ASUS43 KFSD 272010
RWRFSD

WEATHER ROUNDUP FOR SE SOUTH DAKOTA/SW MINNESOTA/NW IOWA
NATIONAL WEATHER SERVICE SIOUX FALLS SD
200 PM CST THU NOV 27 2014

NOTE: "FAIR" INDICATES FEW OR NO CLOUDS BELOW 12,000 FEET WITH NO
SIGNIFICANT WEATHER AND OR OBSTRUCTIONS TO VISIBILITY.


SDZ038>040-050-052>070-272100-
SOUTHEAST SOUTH DAKOTA

CITY           SKY/WX    TMP DP  RH WIND       PRES   REMARKS
CHAMBERLAIN    CLOUDY    21  12  67 SE21      30.15F WCI   5
HURON          CLOUDY    13   1  59 SE12G21   30.27F WCI  -1
MADISON        CLOUDY     9   0  66 S15       30.27F WCI  -8
MITCHELL       MOSUNNY   15   5  64 SE18      30.26F WCI  -2
SIOUX FALLS    CLOUDY    10  -1  61 SE9       30.33F WCI  -3
WINNER         CLOUDY    30  16  56 SE15G25   30.10F WCI  19
YANKTON        MOSUNNY   18   7  62 E14       30.33F WCI   4
$$

MNZ071-072-080-081-089-090-097-098-272100-
SOUTHWEST MINNESOTA

CITY           SKY/WX    TMP DP  RH WIND       PRES   REMARKS
FAIRMONT       SUNNY      1  -6  71 S3        30.43F
JACKSON        MOSUNNY    9  -4  56 S3        30.39F
LUVERNE        CLOUDY    12   0  57 SE8       30.36F WCI   1
MARSHALL       SUNNY      5  -6  61 SE8       30.39F WCI  -8
MONTEVIDEO     SUNNY      7  -2  66 SW6       30.43F WCI  -3
PIPESTONE      CLOUDY     9  -2  61 S10       30.32F WCI  -6
REDWOOD FALLS  SUNNY      0  -6  76 S6        30.44F WCI -12
TRACY          SUNNY      9  -2  61 S8        30.38F WCI  -3
WINDOM         SUNNY      7  -4  61 CALM      30.39F
WORTHINGTON    CLOUDY     7  -6  56 S8        30.37F WCI  -6
$$

IAZ001>003-012>014-020>022-031-032-NEZ013-014-SDZ071-272100-
NORTHWEST IOWA

CITY           SKY/WX    TMP DP  RH WIND       PRES   REMARKS
CHEROKEE       CLOUDY     9   1  69 S5        30.41F WCI   0
DENISON        CLOUDY    14   0  52 SE3       30.39F
ESTHERVILLE    SUNNY      1  -4  79 S3        30.42F
LE MARS        CLOUDY    12   1  62 SE8       30.39F WCI   1
ORANGE CITY    PTSUNNY   10   0  61 SE5       30.37F WCI   2
SHELDON        CLOUDY     7  -4  61 S8        30.37F WCI  -6
SIOUX CITY     CLOUDY    17   2  51 SE12      30.39F WCI   4
SPENCER        MOSUNNY    5  -4  66 S5        30.41F WCI  -4
STORM LAKE     CLOUDY     9  -2  61 SE5       30.40F WCI   0
$$

ABBREVIATIONS USED IN REMARKS
   TC - TEMPERATURE IN CELSIUS
  WCI - WIND CHILL INDEX
   HX - HEAT INDEX
  VSB - VISIBILITY




USA.gov is the U.S. government's official web portal to all federal, state and local government web resources and services.